This demonstration page uses our WeatherBlox Daily Observations layout. Learn more.

Left ArrowRight Arrow

40.92945, -100.16068

Hourly Observations for February 3, 2022

Temp ( °F °C ) Dew Point ( °F °C ) Humidity (%) Winds ( mph kmh ) Pressure ( in mb ) Visibility ( mi km ) Precip ( " mm )
2:55 am 02:55 Mostly Cloudy 1 -17.4 -9 -23 62 62 N 5 7 30.76 1042 10 16 0.00 0.00
3:15 am 03:15 Mostly Cloudy 1 -17 -9 -22.9 60 60 NNE 6 9 30.74 1041 10 16 0.00 0.00
3:35 am 03:35 Cloudy 2 -16.5 -9 -23 57 57 NNE 5 7 30.74 1041 10 16 0.00 0.00
3:55 am 03:55 Cloudy 2 -16.5 -9 -23 57 57 NNE 7 11 30.73 1041 10 16 0.00 0.00
4:15 am 04:15 Cloudy 3 -16.2 -9 -23 56 56 NNE 8 13 30.72 1040 10 16 0.00 0.00
4:35 am 04:35 Cloudy 3 -16.1 -9 -23 56 56 NE 7 11 30.72 1040 10 16 0.00 0.00
4:55 am 04:55 Cloudy 3 -16 -10 -23.1 55 55 NE 7 11 30.71 1040 10 16 0.00 0.00
5:15 am 05:15 Cloudy 3 -16.1 -9 -23 56 56 NE 7 11 30.71 1040 10 16 0.00 0.00
5:35 am 05:35 Cloudy 3 -16.1 -10 -23.1 55 55 NE 6 9 30.72 1040 10 16 0.00 0.00
5:55 am 05:55 Cloudy 2 -16.4 -10 -23.2 56 56 ENE 6 9 30.72 1040 10 16 0.00 0.00
6:15 am 06:15 Cloudy 2 -16.8 -10 -23.3 57 57 NE 6 9 30.73 1041 10 16 0.00 0.00
6:35 am 06:35 Mostly Cloudy 1 -17.5 -10 -23.3 61 61 NNE 6 9 30.74 1041 10 16 0.00 0.00
6:55 am 06:55 Partly Cloudy -1 -18.1 -10 -23.5 63 63 NE 5 7 30.74 1041 10 16 0.00 0.00
7:15 am 07:15 Partly Cloudy -1 -18.5 -10 -23.6 64 64 NNE 3 6 30.76 1042 10 16 0.00 0.00
7:35 am 07:35 Clear -2 -18.8 -10 -23.6 66 66 NE 5 7 30.76 1042 10 16 0.00 0.00
7:55 am 07:55 Sunny -3 -19.2 -11 -24 66 66 NE 3 6 30.77 1042 7 11 0.00 0.00
8:15 am 08:15 Sunny -2 -19 -11 -23.7 67 67 N 5 7 30.77 1042 10 16 0.00 0.00
8:35 am 08:35 Sunny 0 -17.8 -10 -23.1 63 63 Calm 30.77 1042 10 16 0.00 0.00
8:55 am 08:55 Sunny 2 -16.9 -10 -23.4 57 57 ENE 6 9 30.76 1042 10 16 0.00 0.00
9:15 am 09:15 Sunny 3 -16.2 -10 -23.5 54 54 E 7 11 30.75 1041 10 16 0.00 0.00
9:35 am 09:35 Sunny 4 -15.7 -10 -23.6 51 51 E 5 7 30.75 1041 10 16 0.00 0.00
9:55 am 09:55 Sunny 5 -15 -12 -24.3 45 45 E 6 9 30.74 1041 10 16 0.00 0.00
10:15 am 10:15 Sunny 6 -14.4 -13 -25 40 40 SE 6 9 30.73 1041 10 16 0.00 0.00
10:35 am 10:35 Partly Cloudy 7 -14 -13 -25.1 39 39 E 3 6 30.73 1041 10 16 0.00 0.00
10:55 am 10:55 Partly Cloudy 8 -13.6 -14 -25.3 37 37 SE 6 9 30.70 1040 10 16 0.00 0.00
11:15 am 11:15 Sunny 9 -13 -13 -25 36 36 SSE 7 11 30.70 1039 10 16 0.00 0.00
11:35 am 11:35 Sunny 10 -12.3 -14 -25.4 33 33 SSE 6 9 30.69 1039 10 16 0.00 0.00
11:55 am 11:55 Sunny 11 -11.7 -12 -24.5 34 34 SSE 5 7 30.68 1039 10 16 0.00 0.00
12:15 pm 12:15 Sunny 12 -11 -12 -24.7 32 32 SSE 5 7 30.66 1038 10 16 0.00 0.00
12:35 pm 12:35 Sunny 13 -10.4 -11 -24.1 32 32 SE 6 9 30.64 1038 10 16 0.00 0.00
12:55 pm 12:55 Sunny 15 -9.5 -10 -23.5 31 31 SSW 5 7 30.62 1037 10 16 0.00 0.00
1:15 pm 13:15 Sunny 15 -9.2 -10 -23.4 31 31 SSW 5 7 30.60 1036 10 16 0.00 0.00
1:35 pm 13:35 Sunny 17 -8.5 -9 -22.6 31 31 SSW 5 7 30.58 1035 10 16 0.00 0.00
1:55 pm 13:55 Sunny 17 -8.3 -8 -22.3 32 32 S 3 6 30.57 1035 10 16 0.00 0.00
2:15 pm 14:15 Sunny 19 -7.4 -8 -22.1 30 30 S 6 9 30.54 1034 10 16 0.00 0.00
2:35 pm 14:35 Sunny 19 -7 -7 -21.9 30 30 SSW 7 11 30.54 1034 10 16 0.00 0.00
2:55 pm 14:55 Sunny 20 -6.7 -7 -21.7 29 29 SW 5 7 30.53 1034 10 16 0.00 0.00
3:35 pm 15:35 Sunny 22 -5.5 -6 -21.3 28 28 SW 6 9 30.51 1033 10 16 0.00 0.00
3:55 pm 15:55 Sunny 22 -5.3 -6 -21.1 28 28 SSW 10 17 30.51 1033 10 16 0.00 0.00
4:15 pm 16:15 Sunny 23 -5.1 -6 -21 28 28 SSW 8 13 30.51 1033 10 16 0.00 0.00
4:35 pm 16:35 Sunny 23 -5.2 -6 -20.9 28 28 SSW 10 17 30.51 1033 10 16 0.00 0.00
4:55 pm 16:55 Sunny 22 -5.5 -6 -21 29 29 SW 10 17 30.51 1033 10 16 0.00 0.00
5:15 pm 17:15 Sunny 22 -5.7 -7 -21.4 28 28 SSW 10 17 30.51 1033 10 16 0.00 0.00
5:35 pm 17:35 Sunny 21 -6.1 -6 -21.2 29 29 SSW 9 15 30.51 1033 10 16 0.00 0.00
5:55 pm 17:55 Sunny 19 -7 -6 -21.1 32 32 SSW 8 13 30.52 1034 10 16 0.00 0.00
6:15 pm 18:15 Clear 15 -9.3 -7 -21.4 37 37 S 8 13 30.54 1034 10 16 0.00 0.00
6:35 pm 18:35 Clear 15 -9.5 -6 -21.3 38 38 S 6 9 30.55 1034 10 16 0.00 0.00
6:55 pm 18:55 Clear 13 -10.5 -6 -21.3 41 41 S 7 11 30.56 1035 10 16 0.00 0.00
7:15 pm 19:15 Clear 11 -11.4 -7 -21.6 43 43 S 7 11 30.57 1035 10 16 0.00 0.00
7:35 pm 19:35 Clear 11 -11.4 -7 -21.5 43 43 S 6 9 30.57 1035 10 16 0.00 0.00
7:55 pm 19:55 Clear 10 -12 -7 -21.8 44 44 S 8 13 30.57 1035 10 16 0.00 0.00
8:15 pm 20:15 Clear 11 -11.6 -5 -20.8 47 47 S 9 15 30.56 1035 10 16 0.00 0.00
8:35 pm 20:35 Clear 10 -12.4 -7 -21.5 47 47 S 7 11 30.57 1035 10 16 0.00 0.00
8:55 pm 20:55 Clear 10 -12 -6 -21.1 47 47 S 3 6 30.57 1035 10 16 0.00 0.00
9:15 pm 21:15 Clear 13 -10.4 -5 -20.5 44 44 SW 5 7 30.57 1035 10 16 0.00 0.00
9:35 pm 21:35 Clear 10 -12 -6 -20.9 48 48 Calm 30.58 1036 10 16 0.00 0.00
9:55 pm 21:55 Clear 12 -11.1 -4 -20 48 48 WSW 7 11 30.58 1036 10 16 0.00 0.00
10:15 pm 22:15 Clear 12 -10.9 -3 -19.5 49 49 SW 8 13 30.57 1035 10 16 0.00 0.00
10:35 pm 22:35 Clear 12 -11.2 -2 -19.1 52 52 WSW 8 13 30.58 1035 10 16 0.00 0.00
10:55 pm 22:55 Clear 11 -11.6 -3 -19.2 54 54 SW 8 13 30.58 1036 10 16 0.00 0.00
11:15 pm 23:15 Clear 11 -11.6 -2 -18.9 55 55 SW 7 11 30.57 1035 10 16 0.00 0.00
11:35 pm 23:35 Clear 8 -13.4 -3 -19.4 61 61 W 7 11 30.59 1036 10 16 0.00 0.00
11:55 pm 23:55 Clear 9 -12.6 -1 -18.5 62 62 SW 9 15 30.57 1035 10 16 0.00 0.00

Powered by AerisWeather